| time (UTC) | temp F | wind direction | speed knots | gust knots | rain 1hr in | rain 24hr in | rain mn in | humidity % | barometer mb |
| 20260504003307 | 61 | 131 | 0.0 | 0.9 | 0.00 | 0.00 | 0.00 | 51 | 1017.2 |
| 20260504002803 | 62 | 136 | 0.0 | 2.6 | 0.00 | 0.00 | 0.00 | 50 | 1016.9 |
| 20260504002300 | 62 | 121 | 0.0 | 0.9 | 0.00 | 0.00 | 0.00 | 49 | 1017.0 |
| 20260504001758 | 62 | 225 | 1.7 | 2.6 | 0.00 | 0.00 | 0.00 | 48 | 1017.0 |
| 20260504001255 | 62 | 135 | 1.7 | 4.3 | 0.00 | 0.00 | 0.00 | 47 | 1016.8 |
| 20260504000752 | 63 | 144 | 1.7 | 4.3 | 0.00 | 0.00 | 0.00 | 47 | 1016.8 |
| 20260504000248 | 63 | 175 | 3.5 | 6.1 | 0.00 | 0.00 | 0.00 | 46 | 1017.2 |
| 20260503235746 | 64 | 145 | 2.6 | 4.3 | 0.00 | 0.00 | 0.00 | 46 | 1017.1 |
| 20260503235243 | 64 | 166 | 4.3 | 5.2 | 0.00 | 0.00 | 0.00 | 46 | 1017.2 |
| 20260503234741 | 64 | 128 | 0.9 | 6.1 | 0.00 | 0.00 | 0.00 | 45 | 1016.9 |
| 20260503234239 | 64 | 161 | 0.0 | 1.7 | 0.00 | 0.00 | 0.00 | 45 | 1017.2 |
| 20260503233736 | 64 | 159 | 2.6 | 5.2 | 0.00 | 0.00 | 0.00 | 44 | 1017.2 |
| 20260503233232 | 64 | 252 | 0.9 | 4.3 | 0.00 | 0.00 | 0.00 | 44 | 1017.1 |
| 20260503232729 | 64 | 82 | 1.7 | 6.1 | 0.00 | 0.00 | 0.00 | 44 | 1017.0 |
| 20260503232226 | 65 | 149 | 3.5 | 4.3 | 0.00 | 0.00 | 0.00 | 44 | 1016.9 |
| 20260503231724 | 65 | 102 | 4.3 | 5.2 | 0.00 | 0.00 | 0.00 | 43 | 1017.2 |
| 20260503231220 | 65 | 196 | 4.3 | 6.1 | 0.00 | 0.00 | 0.00 | 43 | 1017.1 |
| 20260503230717 | 66 | 139 | 0.0 | 5.2 | 0.00 | 0.00 | 0.00 | 43 | 1017.2 |
| 20260503230214 | 66 | 131 | 2.6 | 4.3 | 0.00 | 0.00 | 0.00 | 42 | 1017.2 |
| 20260503225711 | 65 | 171 | 1.7 | 6.1 | 0.00 | 0.00 | 0.00 | 42 | 1017.3 |
| 20260503225206 | 65 | 160 | 4.3 | 6.1 | 0.00 | 0.00 | 0.00 | 43 | 1017.3 |
| 20260503224703 | 66 | 288 | 2.6 | 6.1 | 0.00 | 0.00 | 0.00 | 40 | 1017.5 |
| 20260503224201 | 66 | 144 | 3.5 | 7.0 | 0.00 | 0.00 | 0.00 | 39 | 1017.6 |
| 20260503223658 | 66 | 164 | 0.9 | 2.6 | 0.00 | 0.00 | 0.00 | 40 | 1017.8 |
| 20260503223155 | 66 | 169 | 1.7 | 7.0 | 0.00 | 0.00 | 0.00 | 40 | 1017.8 |
| 20260503222652 | 66 | 230 | 3.5 | 8.7 | 0.00 | 0.00 | 0.00 | 40 | 1017.8 |
| 20260503222150 | 65 | 146 | 4.3 | 7.0 | 0.00 | 0.00 | 0.00 | 40 | 1017.9 |
| 20260503221648 | 65 | 147 | 2.6 | 4.3 | 0.00 | 0.00 | 0.00 | 39 | 1018.0 |
| 20260503221145 | 65 | 152 | 1.7 | 4.3 | 0.00 | 0.00 | 0.00 | 38 | 1018.0 |
| 20260503220642 | 66 | 227 | 2.6 | 6.1 | 0.00 | 0.00 | 0.00 | 38 | 1018.2 |
| 20260503220138 | 66 | 124 | 0.9 | 7.0 | 0.00 | 0.00 | 0.00 | 39 | 1018.3 |
| 20260503215636 | 65 | 252 | 1.7 | 6.1 | 0.00 | 0.00 | 0.00 | 39 | 1018.4 |
| 20260503215132 | 65 | 129 | 0.9 | 7.0 | 0.00 | 0.00 | 0.00 | 40 | 1018.2 |
| 20260503214631 | 66 | 158 | 1.7 | 5.2 | 0.00 | 0.00 | 0.00 | 38 | 1018.4 |
| 20260503214126 | 67 | 336 | 1.7 | 4.3 | 0.00 | 0.00 | 0.00 | 36 | 1018.7 |
| 20260503213620 | 69 | 160 | 1.7 | 2.6 | 0.00 | 0.00 | 0.00 | 38 | 1018.8 |
| 20260503213116 | 67 | 152 | 0.9 | 4.3 | 0.00 | 0.00 | 0.00 | 37 | 1018.9 |
| 20260503212614 | 67 | 135 | 0.0 | 9.6 | 0.00 | 0.00 | 0.00 | 37 | 1018.9 |
| 20260503212111 | 66 | 238 | 3.5 | 12.2 | 0.00 | 0.00 | 0.00 | 36 | 1019.1 |
| 20260503211609 | 66 | 212 | 1.7 | 6.1 | 0.00 | 0.00 | 0.00 | 37 | 1019.3 |
| 20260503211104 | 67 | 130 | 4.3 | 9.6 | 0.00 | 0.00 | 0.00 | 36 | 1019.4 |
| 20260503210601 | 68 | 174 | 2.6 | 5.2 | 0.00 | 0.00 | 0.00 | 35 | 1019.1 |
| 20260503210056 | 67 | 79 | 2.6 | 9.6 | 0.00 | 0.00 | 0.00 | 36 | 1018.9 |
| 20260503205553 | 66 | 125 | 1.7 | 7.8 | 0.00 | 0.00 | 0.00 | 37 | 1018.9 |
| 20260503205049 | 67 | 130 | 2.6 | 5.2 | 0.00 | 0.00 | 0.00 | 36 | 1018.8 |
| 20260503204547 | 66 | 193 | 3.5 | 5.2 | 0.00 | 0.00 | 0.00 | 36 | 1019.0 |
| 20260503204044 | 66 | 263 | 3.5 | 8.7 | 0.00 | 0.00 | 0.00 | 36 | 1019.4 |
| 20260503203541 | 66 | 155 | 4.3 | 6.1 | 0.00 | 0.00 | 0.00 | 35 | 1019.4 |
| 20260503203038 | 66 | 236 | 1.7 | 5.2 | 0.00 | 0.00 | 0.00 | 35 | 1019.6 |
| 20260503202536 | 66 | 137 | 3.5 | 7.0 | 0.00 | 0.00 | 0.00 | 35 | 1019.6 |
| 20260503202033 | 67 | 188 | 4.3 | 8.7 | 0.00 | 0.00 | 0.00 | 34 | 1019.6 |
| 20260503201531 | 67 | 170 | 1.7 | 6.1 | 0.00 | 0.00 | 0.00 | 34 | 1019.6 |
| 20260503201028 | 66 | 175 | 0.0 | 6.1 | 0.00 | 0.00 | 0.00 | 37 | 1019.8 |
| 20260503200524 | 66 | 158 | 0.0 | 5.2 | 0.00 | 0.00 | 0.00 | 37 | 1019.8 |
| 20260503200021 | 66 | 272 | 7.0 | 8.7 | 0.00 | 0.00 | 0.00 | 34 | 1020.1 |
| 20260503195518 | 66 | 147 | 1.7 | 6.1 | 0.00 | 0.00 | 0.00 | 37 | 1020.2 |
| 20260503195015 | 67 | 152 | 1.7 | 9.6 | 0.00 | 0.00 | 0.00 | 36 | 1020.0 |
| 20260503194513 | 65 | 174 | 0.9 | 4.3 | 0.00 | 0.00 | 0.00 | 39 | 1020.0 |
| 20260503194012 | 65 | 123 | 2.6 | 6.1 | 0.00 | 0.00 | 0.00 | 36 | 1020.3 |
| 20260503193509 | 66 | 132 | 1.7 | 7.8 | 0.00 | 0.00 | 0.00 | 38 | 1020.6 |
| 20260503193004 | 66 | 265 | 2.6 | 7.0 | 0.00 | 0.00 | 0.00 | 33 | 1021.0 |
| 20260503192500 | 65 | 152 | 1.7 | 11.3 | 0.00 | 0.00 | 0.00 | 36 | 1020.9 |
| 20260503191956 | 66 | 275 | 1.7 | 4.3 | 0.00 | 0.00 | 0.00 | 37 | 1020.9 |
| 20260503191454 | 65 | 156 | 0.9 | 4.3 | 0.00 | 0.00 | 0.00 | 37 | 1021.1 |
| 20260503190950 | 66 | 227 | 4.3 | 8.7 | 0.00 | 0.00 | 0.00 | 34 | 1021.2 |
| 20260503190447 | 66 | 294 | 1.7 | 2.6 | 0.00 | 0.00 | 0.00 | 38 | 1021.3 |
| 20260503185944 | 65 | 151 | 3.5 | 7.0 | 0.00 | 0.00 | 0.00 | 35 | 1021.2 |
| 20260503185441 | 66 | 283 | 7.0 | 9.6 | 0.00 | 0.00 | 0.00 | 36 | 1021.4 |
| 20260503184940 | 65 | 158 | 4.3 | 6.1 | 0.00 | 0.00 | 0.00 | 34 | 1021.5 |
| 20260503184437 | 64 | 209 | 0.9 | 5.2 | 0.00 | 0.00 | 0.00 | 38 | 1021.7 |
| 20260503183933 | 64 | 169 | 2.6 | 9.6 | 0.00 | 0.00 | 0.00 | 36 | 1021.6 |
| 20260503183430 | 65 | 99 | 3.5 | 5.2 | 0.00 | 0.00 | 0.00 | 33 | 1021.9 |
| 20260503182927 | 65 | 150 | 3.5 | 7.8 | 0.00 | 0.00 | 0.00 | 37 | 1021.9 |
| 20260503182426 | 65 | 169 | 2.6 | 6.1 | 0.00 | 0.00 | 0.00 | 38 | 1021.9 |
| 20260503181923 | 65 | 155 | 3.5 | 5.2 | 0.00 | 0.00 | 0.00 | 37 | 1022.1 |
| 20260503181420 | 65 | 123 | 0.9 | 5.2 | 0.00 | 0.00 | 0.00 | 40 | 1022.1 |
| 20260503180916 | 64 | 141 | 1.7 | 5.2 | 0.00 | 0.00 | 0.00 | 38 | 1022.3 |
| 20260503180414 | 63 | 252 | 5.2 | 8.7 | 0.00 | 0.00 | 0.00 | 37 | 1022.3 |
| 20260503175910 | 63 | 132 | 4.3 | 7.8 | 0.00 | 0.00 | 0.00 | 38 | 1022.2 |
| 20260503175409 | 63 | 144 | 4.3 | 7.8 | 0.00 | 0.00 | 0.00 | 37 | 1022.4 |
| 20260503174904 | 63 | 251 | 1.7 | 5.2 | 0.00 | 0.00 | 0.00 | 40 | 1022.2 |
| 20260503174402 | 63 | 264 | 3.5 | 7.0 | 0.00 | 0.00 | 0.00 | 37 | 1022.6 |
| 20260503173857 | 63 | 203 | 3.5 | 6.1 | 0.00 | 0.00 | 0.00 | 39 | 1022.6 |
| 20260503173353 | 62 | 122 | 3.5 | 6.1 | 0.00 | 0.00 | 0.00 | 39 | 1022.7 |
| 20260503172850 | 62 | 145 | 5.2 | 9.6 | 0.00 | 0.00 | 0.00 | 38 | 1022.8 |
| 20260503172348 | 62 | 118 | 2.6 | 9.6 | 0.00 | 0.00 | 0.00 | 39 | 1022.9 |
| 20260503171844 | 61 | 129 | 2.6 | 6.1 | 0.00 | 0.00 | 0.00 | 38 | 1023.1 |
| 20260503171341 | 62 | 76 | 2.6 | 5.2 | 0.00 | 0.00 | 0.00 | 40 | 1022.8 |
| 20260503170838 | 62 | 167 | 3.5 | 8.7 | 0.00 | 0.00 | 0.00 | 40 | 1023.2 |
| 20260503170334 | 62 | 123 | 1.7 | 7.0 | 0.00 | 0.00 | 0.00 | 41 | 1023.1 |
| 20260503150727 | 59 | 146 | 2.6 | 5.2 | 0.00 | 0.00 | 0.00 | 51 | 1024.5 |
| 20260503150223 | 58 | 187 | 1.7 | 6.1 | 0.00 | 0.00 | 0.00 | 50 | 1024.6 |
| 20260503140147 | 53 | 86 | 0.9 | 6.1 | 0.00 | 0.00 | 0.00 | 57 | 1024.5 |
| 20260503131117 | 48 | 125 | 0.9 | 1.7 | 0.00 | 0.00 | 0.00 | 72 | 1025.0 |
| 20260503130614 | 48 | 142 | 0.9 | 2.6 | 0.00 | 0.00 | 0.00 | 76 | 1024.9 |
| 20260503130112 | 46 | 139 | 0.9 | 2.6 | 0.00 | 0.00 | 0.00 | 78 | 1024.7 |
| 20260503110504 | 31 | 115 | 0.0 | 0.0 | 0.00 | 0.00 | 0.00 | 99 | 1024.0 |
| 20260503090350 | 32 | 115 | 0.0 | 0.0 | 0.00 | 0.00 | 0.00 | 99 | 1023.9 |
| 20260503081317 | 32 | 115 | 0.0 | 0.0 | 0.00 | 0.00 | 0.00 | 99 | 1023.3 |
| 20260503080814 | 32 | 115 | 0.0 | 0.0 | 0.00 | 0.00 | 0.00 | 99 | 1023.4 |
| 20260503080311 | 32 | 115 | 0.0 | 0.0 | 0.00 | 0.00 | 0.00 | 99 | 1023.4 |
| 20260503072748 | 32 | 115 | 0.0 | 0.0 | 0.00 | 0.00 | 0.00 | 99 | 1023.3 |
| 20260503072245 | 33 | 115 | 0.0 | 0.0 | 0.00 | 0.00 | 0.00 | 99 | 1023.5 |
| 20260503071741 | 33 | 115 | 0.0 | 0.0 | 0.00 | 0.00 | 0.00 | 99 | 1023.4 |
| 20260503071238 | 33 | 115 | 0.0 | 0.0 | 0.00 | 0.00 | 0.00 | 99 | 1023.3 |
| 20260503070734 | 33 | 115 | 0.0 | 0.0 | 0.00 | 0.00 | 0.00 | 99 | 1023.3 |
| 20260503070232 | 33 | 115 | 0.0 | 0.0 | 0.00 | 0.00 | 0.00 | 99 | 1023.4 |
| 20260503060157 | 34 | 115 | 0.0 | 0.0 | 0.00 | 0.00 | 0.00 | 99 | 1023.5 |
| 20260503054644 | 35 | 115 | 0.0 | 0.0 | 0.00 | 0.00 | 0.00 | 99 | 1023.5 |
| 20260503054141 | 35 | 115 | 0.0 | 0.0 | 0.00 | 0.00 | 0.00 | 99 | 1023.6 |
| 20260503053639 | 35 | 115 | 0.0 | 0.0 | 0.00 | 0.00 | 0.00 | 99 | 1023.6 |
| 20260503053138 | 35 | 115 | 0.0 | 0.0 | 0.00 | 0.00 | 0.00 | 99 | 1023.8 |
| 20260503052633 | 35 | 115 | 0.0 | 0.0 | 0.00 | 0.00 | 0.00 | 99 | 1023.8 |
| 20260503052130 | 35 | 115 | 0.0 | 0.0 | 0.00 | 0.00 | 0.00 | 99 | 1023.7 |
| 20260503051625 | 35 | 115 | 0.0 | 0.0 | 0.00 | 0.00 | 0.00 | 99 | 1023.7 |
| 20260503051123 | 35 | 115 | 0.0 | 0.0 | 0.00 | 0.00 | 0.00 | 98 | 1023.6 |
| 20260503050620 | 36 | 115 | 0.0 | 0.0 | 0.00 | 0.00 | 0.00 | 98 | 1023.6 |
| 20260503050116 | 36 | 115 | 0.0 | 0.0 | 0.00 | 0.00 | 0.00 | 98 | 1023.5 |
| 20260503045614 | 36 | 115 | 0.0 | 0.0 | 0.00 | 0.00 | 0.00 | 98 | 1023.4 |
| 20260503045111 | 36 | 115 | 0.0 | 0.0 | 0.00 | 0.00 | 0.00 | 98 | 1023.6 |
| 20260503044607 | 36 | 115 | 0.0 | 0.0 | 0.00 | 0.00 | 0.00 | 98 | 1023.6 |
| 20260503044105 | 37 | 111 | 0.0 | 0.0 | 0.00 | 0.00 | 0.00 | 98 | 1023.6 |
| 20260503043601 | 37 | 115 | 0.0 | 0.0 | 0.00 | 0.00 | 0.00 | 97 | 1023.4 |
| 20260503043058 | 37 | 115 | 0.0 | 0.0 | 0.00 | 0.00 | 0.00 | 97 | 1023.6 |
| 20260503042555 | 37 | 115 | 0.0 | 0.0 | 0.00 | 0.00 | 0.00 | 97 | 1023.5 |
| 20260503042051 | 37 | 115 | 0.0 | 0.0 | 0.00 | 0.00 | 0.00 | 97 | 1023.6 |
| 20260503041548 | 37 | 115 | 0.0 | 0.0 | 0.00 | 0.00 | 0.00 | 96 | 1023.4 |
| 20260503041046 | 37 | 115 | 0.0 | 0.0 | 0.00 | 0.00 | 0.00 | 96 | 1023.6 |
| 20260503040543 | 37 | 115 | 0.0 | 0.0 | 0.00 | 0.00 | 0.00 | 96 | 1023.7 |
| 20260503040040 | 37 | 115 | 0.0 | 0.0 | 0.00 | 0.00 | 0.00 | 96 | 1023.5 |
| 20260503035537 | 38 | 115 | 0.0 | 0.0 | 0.00 | 0.00 | 0.00 | 95 | 1023.5 |
| 20260503035034 | 38 | 115 | 0.0 | 0.0 | 0.00 | 0.00 | 0.00 | 95 | 1023.5 |
| 20260503034531 | 38 | 115 | 0.0 | 0.0 | 0.00 | 0.00 | 0.00 | 95 | 1023.4 |
| 20260503034029 | 38 | 115 | 0.0 | 0.0 | 0.00 | 0.00 | 0.00 | 94 | 1023.4 |
| 20260503033526 | 39 | 116 | 0.0 | 0.0 | 0.00 | 0.00 | 0.00 | 94 | 1023.6 |
| 20260503033023 | 39 | 116 | 0.0 | 0.0 | 0.00 | 0.00 | 0.00 | 94 | 1023.4 |
| 20260503032522 | 39 | 115 | 0.0 | 0.0 | 0.00 | 0.00 | 0.00 | 93 | 1023.4 |
| 20260503032019 | 39 | 116 | 0.0 | 0.0 | 0.00 | 0.00 | 0.00 | 92 | 1023.4 |
| 20260503031517 | 39 | 114 | 0.0 | 0.0 | 0.00 | 0.00 | 0.00 | 92 | 1023.5 |
| 20260503031014 | 39 | 112 | 0.0 | 0.0 | 0.00 | 0.00 | 0.00 | 91 | 1023.4 |
| 20260503030510 | 40 | 114 | 0.0 | 0.0 | 0.00 | 0.00 | 0.00 | 90 | 1023.1 |
| 20260503030007 | 40 | 114 | 0.0 | 0.0 | 0.00 | 0.00 | 0.00 | 90 | 1023.3 |
| 20260503025504 | 40 | 114 | 0.0 | 0.0 | 0.00 | 0.00 | 0.00 | 89 | 1023.5 |
| 20260503025001 | 41 | 113 | 0.0 | 0.0 | 0.00 | 0.00 | 0.00 | 88 | 1023.2 |
| 20260503024457 | 41 | 114 | 0.0 | 0.0 | 0.00 | 0.00 | 0.00 | 87 | 1023.2 |
| 20260503023955 | 41 | 114 | 0.0 | 0.0 | 0.00 | 0.00 | 0.00 | 85 | 1023.4 |
| 20260503023452 | 41 | 114 | 0.0 | 0.0 | 0.00 | 0.00 | 0.00 | 83 | 1023.2 |
| 20260503022949 | 42 | 114 | 0.0 | 0.0 | 0.00 | 0.00 | 0.00 | 83 | 1023.2 |
| 20260503022444 | 42 | 112 | 0.0 | 0.0 | 0.00 | 0.00 | 0.00 | 82 | 1022.9 |
| 20260503021940 | 43 | 112 | 0.0 | 0.0 | 0.00 | 0.00 | 0.00 | 81 | 1022.9 |
| 20260503021436 | 43 | 112 | 0.0 | 0.0 | 0.00 | 0.00 | 0.00 | 80 | 1022.8 |
| 20260503020934 | 44 | 112 | 0.0 | 0.0 | 0.00 | 0.00 | 0.00 | 78 | 1022.9 |
| 20260503020432 | 44 | 110 | 0.0 | 0.0 | 0.00 | 0.00 | 0.00 | 78 | 1022.7 |
| 20260503015927 | 44 | 112 | 0.0 | 0.0 | 0.00 | 0.00 | 0.00 | 78 | 1022.5 |
| 20260503015424 | 45 | 112 | 0.0 | 0.0 | 0.00 | 0.00 | 0.00 | 76 | 1022.4 |
| 20260503014920 | 46 | 112 | 0.0 | 0.0 | 0.00 | 0.00 | 0.00 | 75 | 1022.4 |
| 20260503014418 | 46 | 112 | 0.0 | 0.0 | 0.00 | 0.00 | 0.00 | 76 | 1022.3 |
| 20260503013916 | 46 | 101 | 0.0 | 0.0 | 0.00 | 0.00 | 0.00 | 76 | 1022.3 |
| 20260503013412 | 47 | 114 | 0.0 | 0.0 | 0.00 | 0.00 | 0.00 | 74 | 1022.2 |
| 20260503012909 | 47 | 111 | 0.0 | 0.0 | 0.00 | 0.00 | 0.00 | 74 | 1022.2 |
| 20260503012408 | 48 | 108 | 0.0 | 0.0 | 0.00 | 0.00 | 0.00 | 71 | 1022.1 |
| 20260503011903 | 48 | 110 | 0.0 | 0.0 | 0.00 | 0.00 | 0.00 | 72 | 1021.8 |
| 20260503011400 | 48 | 111 | 0.0 | 0.0 | 0.00 | 0.00 | 0.00 | 72 | 1021.8 |
| 20260503010857 | 48 | 114 | 0.0 | 0.9 | 0.00 | 0.00 | 0.00 | 73 | 1021.8 |
| 20260503010354 | 48 | 78 | 0.9 | 0.9 | 0.00 | 0.00 | 0.00 | 72 | 1021.8 |
| 20260503005851 | 48 | 115 | 0.0 | 0.9 | 0.00 | 0.00 | 0.00 | 74 | 1021.6 |
| 20260503005349 | 49 | 182 | 0.0 | 0.9 | 0.00 | 0.00 | 0.00 | 74 | 1021.7 |
| 20260503004844 | 49 | 153 | 0.0 | 0.0 | 0.00 | 0.00 | 0.00 | 71 | 1021.6 |
| 20260503004342 | 50 | 113 | 0.0 | 0.9 | 0.00 | 0.00 | 0.00 | 71 | 1021.6 |
| 20260503003839 | 50 | 115 | 0.0 | 0.0 | 0.00 | 0.00 | 0.00 | 67 | 1021.5 |